Regional Weather Roundup
Issued by NWS Sioux Falls, SD

Home | Current Version | Previous Version | Graphics & Text | Print | Product List | Glossary On
Versions: 1 2 3 4 5 6 7 8 9 10 11 12 13 14 15 16 17 18 19 20 21 22 23 24 25 26 27 28 29 30 31 32 33 34 35 36 37 38 39 40 41 42 43 44 45 46 47 48 49 50
000
ASUS43 KFSD 201602
RWRFSD

WEATHER ROUNDUP FOR SE SOUTH DAKOTA/SW MINNESOTA/NW IOWA
NATIONAL WEATHER SERVICE SIOUX FALLS SD
1100 AM CDT WED AUG 20 2014

NOTE: "FAIR" INDICATES FEW OR NO CLOUDS BELOW 12,000 FEET WITH NO
SIGNIFICANT WEATHER AND OR OBSTRUCTIONS TO VISIBILITY.


SDZ038>040-050-052>070-201700-
SOUTHEAST SOUTH DAKOTA

CITY           SKY/WX    TMP DP  RH WIND       PRES   REMARKS
CHAMBERLAIN    PTSUNNY   78  69  73 SE16      29.73S
HURON          MOSUNNY   79  67  66 SE8       29.75S
MADISON        FAIR      72  72 100 SE9       29.81R
MITCHELL       MOSUNNY   79  68  69 S13       29.76R
SIOUX FALLS    PTSUNNY   77  66  68 SE13      29.77F
WINNER         FAIR      81  69  67 SE12      29.73F
YANKTON        PTSUNNY   75  66  73 S22       29.78R
$$

MNZ071-072-080-081-089-090-097-098-201700-
SOUTHWEST MINNESOTA

CITY           SKY/WX    TMP DP  RH WIND       PRES   REMARKS
FAIRMONT       CLOUDY    72  63  73 MISG      29.84S
JACKSON        CLOUDY    72  64  78 SE8       29.85S
LUVERNE        PTSUNNY   73  66  78 SE6       29.80S
MARSHALL       PTSUNNY   79  64  61 S10       29.82R
MONTEVIDEO     MOSUNNY   79  70  73 S9        29.82R
PIPESTONE      MOSUNNY   73  66  78 SE8       29.83R
REDWOOD FALLS  CLOUDY    78  65  63 S14       29.83R
TRACY          CLOUDY    77  65  67 S10       29.85R
WINDOM         CLOUDY    73  64  73 SE8       29.84R
WORTHINGTON    CLOUDY    73  14  10 SE8       29.84F
$$

IAZ001>003-012>014-020>022-031-032-NEZ013-014-SDZ071-201700-
NORTHWEST IOWA

CITY           SKY/WX    TMP DP  RH WIND       PRES   REMARKS
CHEROKEE       CLOUDY    72  69  90 SE9       29.83S
DENISON        CLOUDY    70  68  94 SE10      29.82F
ESTHERVILLE    CLOUDY    72  66  81 SE10      29.84S
LE MARS        CLOUDY    72  68  88 S8        29.80F
ORANGE CITY    CLOUDY    75  66  73 E7        29.81F
SHELDON        CLOUDY    72  68  88 SE12G17   29.81S
SIOUX CITY     LGT RAIN  72  67  84 SE7       29.82R
SPENCER        CLOUDY    71  66  84 S13       29.83F
STORM LAKE     CLOUDY    72  72 100 SE8       29.87R
$$

ABBREVIATIONS USED IN REMARKS
   TC - TEMPERATURE IN CELSIUS
  WCI - WIND CHILL INDEX
   HX - HEAT INDEX
  VSB - VISIBILITY




USA.gov is the U.S. government's official web portal to all federal, state and local government web resources and services.